STARLINK-3971 (52642 NORAD) Tracking and Keplerian Element Data

This shows tracking and keplerian element data for the satellite.

Feedback or suggestion? Click here.




ElementValue
Catalog52642
NameSTARLINK-3971
Epoch Orbit130
Epoch Day167.08334491
Epoch Year2022
RAAN279.9935
Inclination53.2139
Eccentricity0.0001644
Argument of Perigee41.1931
Mean Anonmoly359.5913
Mean Motion15.73264985
Decay Rate3.108E-05
L11 52642U 22052AW 22167.08334491 .00003108 00000+0 26488-4 0 9993
L22 52642 53.2139 279.9935 0001644 41.1931 359.5913 15.73264985 1301

Live tracking and technical data element details for STARLINK-3971 (NORAD 52642). STARLINK-3971 can be tracked NOW for your location showing map with azimuth and elevation plus other details from your city location.

Track the satellite on the map from your city or location and see movement details for azimuth, elevation, latitude, longitude, range, height, and movement on the map or in text.







IsCatalogInMostPopularTable: catalog: 52642, numindb: 1
Update: records affected: 1



GetName: 52642 STARLINK-3971

Hit Count: updated at: Mon, 27 Jun 2022 05:30:35 GMT